User: anonymous   Login
Location: Unspecified
(0.0000°N, 0.0000°E)
Time: 17:51:20
(UTC+00:00)
Language:

USA 245 - Orbit

View from above orbital plane
View from above orbital plane
View from above satellite
View from above satellite

Ground track
Ground track

The orbit data is extracted from the following two-line orbital elements,

1 39232U 13043A   21205.82317341 0.00012000  00000-0  11347-3 0    04
2 39232  97.8960 268.2014 0513386 166.1720 193.8279 14.82351998    01
Epoch (UTC): 24 July 2021 19:45:22
Eccentricity: 0.0513386
inclination: 97.8960°
perigee height: 262 km
apogee height: 981 km
right ascension of ascending node: 268.2014°
argument of perigee: 166.1720°
revolutions per day: 14.82351998
mean anomaly at epoch: 193.8279°
orbit number at epoch: 0

The dashed part of the orbit path shows where the satellite is in the earth's shadow,  

DLR